Location: Eexterzandvoort
(53.0303°N, 6.7884°E)
Time: 06:57:17
(UTC+00:00)

Cosmos 1833 Rocket - Pass Details

Date: 19 May 2025
Orbit: 831 x 839 km, 71.0° (Epoch: 14 June)

Event Time Altitude Azimuth Distance (km) Brightness Sun altitude
Rises 22:06:56 0° 236° (WSW) 3,385 5.7 -14.8°
Reaches altitude 10° 22:09:31 10° 244° (WSW) 2,454 5.0 -15.0°
Maximum altitude 22:14:48 40° 314° (NW) 1,217 4.0 -15.2°
Drops below altitude 10° 22:20:08 10° 24° (NNE) 2,466 5.8 -15.5°
Sets 22:22:45 0° 32° (NNE) 3,403 6.5 -15.6°
